DELTA 1 DEB, 12539

Orbit data source: Space-Track

DELTA 1 DEB, 12539 is space debris in SSO originally from a launch on Thu, 29 Jul 1976 UTC launched from the Air Force Western Test Range (AFWTR). Debris objects in space refer to the collection of defunct objects orbiting the Earth. Examples of debris include non-operational satellites, rocket bodies, and fragments generated from explosions, collisions, or faulty payload assembly.

Loading next visibility...
Identifier
12539, 1976-077DU
Orbit
SSO
Country
Flag of USUS
Related business
Manufacturer
Unknown
Mission
Spacecraft
Bus & Motor
Unknown
Mass
Unknown
Launch date (UTC)
1976-07-29 (50 years ago)
Launch vehicle
Unknown
Launch site
Air Force Western Test Range (AFWTR)
Object type
Payload
Rocket body
Debris
Shape & HBR
Unknown shape, 0.1 m
Radar Cross Section
Small (<0.1 m²)

Expand to show TLE details & history
Last TLE update: 9 hours ago

TLE from 9 hours ago
0 DELTA 1 DEB
1 12539U 76077DU  26119.01570541  .00005794  00000-0  19368-1 0  9992
2 12539 101.7108  33.5027 0375550  31.0222 346.3384 12.78963981123208
Epoch: 2026-04-29T00:22Z
TLE epoch observation values (Epoch: 2026-04-29T00:22:36.947Z)
Latitude
15.93197°
Longitude
167.49133°
Altitude
1,066.335 km
Speed
7.452 km/s
True Right ascension
02h 00m 30s
True Declination
15° 50' 43"
Sunlit
Object was in daylight at epoch
Visualization orbit readout
Latitude
Unknown
Longitude
Unknown
Altitude
Unknown
Speed
Unknown
Apparent Right ascension
Unknown
Apparent Declination
Unknown
Sunlit
N/A
Visualization observer readout
Local Sidereal Time
16:44:47
Azimuth
Unknown
Elevation
Unknown
Doppler factor
Unknown
Orbital elements
Apogee altitude
1,633.112 km
Perigee altitude
1,053.167 km
Semi-major axis
7,721.277 km
Eccentricity
0.03756
Inclination
101.7108°
RAAN
33.5027°
Arg. of periapsis
31.0222°
True anomaly
345.27355°
Mean anomaly
346.3384°
Eccentric anomaly
345.81096°
Mean motion
3.19897 °/min
Orbital period
112.54 mins
BSTAR
0.019368
Loading maneuver chart data...
Computing Atmospheric mass density...
Loading historical data...
Loading historical data...
Loading historical data...
Loading historical data...
Loading historical data...
Loading historical data...
Loading historical data...

Documentation

Showing up to 5 results
|